Change the Weather History Date:

Thursday, July 18, 2013

  Actual Average (KPBG) Record (KPBG)
Temperature  
Mean Temperature 79 °F 70 °F  
Max Temperature 89 °F 80 °F 95 °F (1953)
Min Temperature 69 °F 59 °F 50 °F (1958)
Cooling Degree Days 14 5  
Month to date cooling degree days 84  
Year to date cooling degree days 154  
Since 1 June cooling degree days 146  
Growing Degree Days 29 (Base 50)    
Moisture  
Dew Point 70 °F    
Average Humidity 78    
Maximum Humidity 92    
Minimum Humidity 50    
Precipitation  
Precipitation 0.00 in - 1.19 in (2008)
Month to date precipitation  
Year to date precipitation  
Sea Level Pressure  
Sea Level Pressure 29.98 in    
Wind  
Wind Speed 1 mph (South)    
Max Wind Speed 6 mph    
Max Gust Speed -    
Visibility 8 miles    
Events Fog , Rain    
T = Trace of Precipitation, MM = Missing Value Source: NWS Daily Summary

Daily Weather History Graph

Daily Weather History Graph

Search for Another Location

Airport or City:

Trip Planner

Search our weather history database for the weather conditions in past years. The results will help you decide how hot, cold, wet, or windy it might be!

Date:

Astronomy

Jul. 18, 2013 Rise Set
Actual Time 5:23 AM EDT 8:33 PM EDT
Civil Twilight 4:47 AM EDT 9:08 PM EDT
Nautical Twilight 4:01 AM EDT 9:54 PM EDT
Astronomical Twilight 3:05 AM EDT 10:50 PM EDT
Moon 4:25 PM EDT (7/18) 1:14 AM EDT (7/18)
Length of Visible Light 16h 21m
Length of Day
15h 10m
Waxing Gibbous, 77% of the Moon is Illuminated
Jul 18
Waxing Gibbous
Jul 22
Full
Jul 29
Last Quarter
Aug 6
New
Aug 14
First Quarter

Hourly Weather History & Observations

Time (EDT) Temp. Heat Index Dew Point Humidity Pressure Visibility Wind Dir Wind Speed Gust Speed Precip Events Conditions
12:15 AM 74.5 °F - 71.2 °F 90% 30.01 in 2.5 mi Calm Calm - N/A   Clear
12:35 AM 74.5 °F - 71.2 °F 90% 30.01 in 10.0 mi Calm Calm - N/A   Clear
12:55 AM 74.5 °F - 70.9 °F 88% 30.01 in 10.0 mi Calm Calm - N/A   Clear
1:15 AM 72.0 °F - 68.7 °F 89% 30.00 in 3.0 mi Calm Calm - N/A   Clear
1:35 AM 72.0 °F - 68.9 °F 90% 29.99 in 4.0 mi Calm Calm - N/A   Clear
1:55 AM 72.0 °F - 68.9 °F 90% 30.00 in 10.0 mi Calm Calm - N/A   Clear
2:15 AM 72.0 °F - 68.7 °F 89% 30.00 in 10.0 mi Calm Calm - N/A   Clear
2:35 AM 70.7 °F - 67.5 °F 89% 30.00 in 7.0 mi Calm Calm - N/A   Clear
2:55 AM 70.5 °F - 67.3 °F 89% 30.01 in 7.0 mi Calm Calm - N/A   Clear
3:15 AM 71.2 °F - 68.2 °F 90% 30.01 in 10.0 mi Calm Calm - N/A   Clear
3:35 AM 70.2 °F - 67.3 °F 91% 30.01 in 4.0 mi Calm Calm - N/A   Clear
3:55 AM 69.6 °F - 66.7 °F 91% 30.01 in 2.5 mi Calm Calm - N/A   Clear
4:15 AM 69.4 °F - 66.6 °F 91% 30.01 in 1.2 mi Calm Calm - N/A   Mist
4:35 AM 69.4 °F - 66.6 °F 91% 30.02 in 3.0 mi Calm Calm - N/A   Clear
4:55 AM 69.4 °F - 66.6 °F 91% 30.02 in 4.0 mi Calm Calm - N/A   Clear
5:15 AM 69.4 °F - 67.1 °F 92% 30.01 in 3.0 mi Calm Calm - N/A   Clear
5:35 AM 69.4 °F - 66.9 °F 92% 30.02 in 0.8 mi Calm Calm - N/A   Mist
5:55 AM 69.4 °F - 67.1 °F 92% 30.02 in 0.5 mi Calm Calm - N/A Fog Fog
6:15 AM 69.4 °F - 67.1 °F 92% 30.02 in 3.0 mi Calm Calm - N/A   Clear
6:35 AM 69.4 °F - 67.1 °F 92% 30.02 in 2.0 mi SSE 3.5 mph - N/A   Clear
6:55 AM 70.0 °F - 67.3 °F 91% 30.02 in 4.0 mi Calm Calm - N/A   Clear
7:15 AM 72.1 °F - 69.6 °F 92% 30.02 in 7.0 mi Calm Calm - N/A   Clear
7:35 AM 74.5 °F - 71.4 °F 90% 30.02 in 10.0 mi Calm Calm - N/A   Clear
7:55 AM 74.5 °F - 70.5 °F 87% 30.03 in 10.0 mi Calm Calm - N/A   Scattered Clouds
8:15 AM 75.7 °F - 70.2 °F 83% 30.03 in 10.0 mi Calm Calm - N/A   Mostly Cloudy
8:35 AM 77.0 °F - 69.8 °F 78% 30.03 in 10.0 mi SE 3.5 mph - N/A   Mostly Cloudy
8:55 AM 76.5 °F - 69.4 °F 79% 30.03 in 10.0 mi Calm Calm - N/A   Overcast
9:15 AM 77.0 °F - 68.7 °F 75% 30.03 in 10.0 mi Calm Calm - N/A   Mostly Cloudy
9:35 AM 78.4 °F - 70.0 °F 75% 30.03 in 10.0 mi Calm Calm - N/A   Mostly Cloudy
9:55 AM 79.7 °F - 69.8 °F 72% 30.02 in 10.0 mi SSE 3.5 mph - N/A   Mostly Cloudy
10:15 AM 80.8 °F 83.8 °F 68.9 °F 67% 30.02 in 10.0 mi Calm Calm - N/A   Scattered Clouds
10:35 AM 82.0 °F 85.3 °F 68.9 °F 64% 30.02 in 10.0 mi SW 3.5 mph - N/A   Scattered Clouds
10:55 AM 82.9 °F 86.5 °F 69.1 °F 63% 30.02 in 10.0 mi West 4.6 mph - N/A   Scattered Clouds
11:15 AM 83.1 °F 86.1 °F 67.8 °F 60% 30.01 in 10.0 mi SW 4.6 mph - N/A   Scattered Clouds
11:35 AM 84.0 °F 87.3 °F 68.4 °F 59% 30.00 in 10.0 mi Calm Calm - N/A   Scattered Clouds
11:55 AM 83.5 °F 86.7 °F 68.4 °F 60% 30.00 in 10.0 mi Calm Calm - N/A   Scattered Clouds
12:15 PM 87.3 °F 92.4 °F 70.5 °F 57% 30.00 in 10.0 mi Calm Calm - N/A   Scattered Clouds
12:35 PM 87.4 °F 92.3 °F 69.8 °F 56% 29.99 in 10.0 mi South 3.5 mph - N/A   Scattered Clouds
12:55 PM 89.6 °F 95.2 °F 70.2 °F 53% 29.99 in 10.0 mi WSW 3.5 mph - N/A   Clear
1:15 PM 89.6 °F 95.7 °F 70.9 °F 54% 29.98 in 10.0 mi SSE 4.6 mph - N/A   Scattered Clouds
1:35 PM 89.6 °F 95.2 °F 70.5 °F 53% 29.98 in 10.0 mi Calm Calm - N/A   Mostly Cloudy
1:55 PM 89.1 °F 95.5 °F 71.4 °F 56% 29.97 in 10.0 mi Calm Calm - N/A   Mostly Cloudy
2:15 PM 85.8 °F 89.7 °F 68.9 °F 57% 29.97 in 10.0 mi Calm Calm - N/A   Mostly Cloudy
2:35 PM 87.1 °F 92.0 °F 70.3 °F 57% 29.97 in 10.0 mi Calm Calm - N/A   Scattered Clouds
2:55 PM 89.6 °F 94.7 °F 69.8 °F 52% 29.96 in 10.0 mi SSW 3.5 mph - N/A   Clear
3:15 PM 89.6 °F 94.3 °F 69.3 °F 51% 29.95 in 10.0 mi WNW 3.5 mph - N/A   Clear
3:35 PM 89.6 °F 94.3 °F 69.3 °F 51% 29.94 in 10.0 mi SW 3.5 mph - N/A   Clear
3:55 PM 89.6 °F 94.7 °F 69.6 °F 52% 29.93 in 10.0 mi WSW 3.5 mph - N/A   Clear
4:15 PM 89.8 °F 94.2 °F 69.1 °F 50% 29.93 in 10.0 mi SW 3.5 mph - N/A   Clear
4:35 PM 89.6 °F 96.2 °F 71.2 °F 55% 29.92 in 10.0 mi WSW 3.5 mph - N/A   Clear
4:55 PM 87.1 °F 93.6 °F 72.1 °F 61% 29.92 in 10.0 mi Calm Calm - N/A   Clear
5:15 PM 89.6 °F 94.7 °F 69.8 °F 52% 29.92 in 10.0 mi Calm Calm - N/A   Clear
5:35 PM 84.9 °F 89.7 °F 70.7 °F 62% 29.92 in 10.0 mi WNW 3.5 mph - N/A Rain Light Rain
6:35 PM 74.5 °F - 70.2 °F 86% 29.93 in 1.8 mi SSE 5.8 mph - N/A Rain Light Rain
6:55 PM 74.5 °F - 70.7 °F 88% 29.93 in 10.0 mi East 3.5 mph - N/A Rain Light Rain
7:15 PM 74.5 °F - 70.7 °F 88% 29.93 in 10.0 mi Calm Calm - N/A   Light Drizzle
7:35 PM 74.5 °F - 70.7 °F 88% 29.93 in 7.0 mi Calm Calm - N/A Rain Light Rain
7:55 PM 74.5 °F - 70.7 °F 88% 29.93 in 7.0 mi Calm Calm - N/A   Mostly Cloudy
8:15 PM 74.5 °F - 70.7 °F 88% 29.93 in 10.0 mi ESE 3.5 mph - N/A   Mostly Cloudy
8:35 PM 74.5 °F - 70.9 °F 88% 29.92 in 10.0 mi East 3.5 mph - N/A   Scattered Clouds
8:55 PM 74.5 °F - 70.9 °F 88% 29.92 in 10.0 mi SE 3.5 mph - N/A   Clear
9:15 PM 74.5 °F - 71.1 °F 89% 29.92 in 10.0 mi SE 3.5 mph - N/A   Scattered Clouds
9:35 PM 74.5 °F - 71.2 °F 90% 29.93 in 10.0 mi Calm Calm - N/A   Mostly Cloudy
9:55 PM 74.5 °F - 71.2 °F 90% 29.93 in 10.0 mi Calm Calm - N/A   Mostly Cloudy
10:15 PM 74.5 °F - 71.2 °F 90% 29.93 in 10.0 mi SE 3.5 mph - N/A   Mostly Cloudy
10:35 PM 74.5 °F - 71.1 °F 89% 29.92 in 10.0 mi Calm Calm - N/A   Scattered Clouds
10:55 PM 74.5 °F - 71.1 °F 89% 29.92 in 10.0 mi Calm Calm - N/A   Mostly Cloudy
11:15 PM 74.5 °F - 71.1 °F 89% 29.91 in 10.0 mi Calm Calm - N/A   Mostly Cloudy
11:35 PM 74.5 °F - 71.2 °F 90% 29.89 in 10.0 mi Calm Calm - N/A Rain Light Rain
11:55 PM 74.5 °F - 70.9 °F 88% 29.89 in 10.0 mi South 4.6 mph - N/A   Scattered Clouds